DELTA 1 DEB

Satellite information

Favourite Embed

Satellite Type and Status

DEBRISIN ORBIT

Key statistics

Satellite DELTA 1 DEB at a glance.

Uptime

19282

Days in orbit

Revolutions

≈ 12.7

Per day

Orbit

MEO

Medium Earth Orbit

Inclination

97.4

Latest

Satellite identification and parameters

Extended collection of information and parameters for DELTA 1 DEB.

Object identification

Identified? True

Debris? True

Object name: DELTA 1 DEB

International designator: 1972-058GT

Object number (NORAD): 8544

Object ID (CCSDS): 8544

Country: UNITED STATES OF AMERICA (US)

Current information (Y/N): Y

RCS size: SMALL

Orbital parameters

Period: 113.032 minutes

Inclination: 97.4286 deg

SMA: 7743.935 km

Apoapsis: 2017.178 km

Periapsis: 714.423 km

RAAN: 300.6502 deg

Eccentricy: 0.0841145

Argument of periapsis: 342.0193 deg

Mean anomaly: 15.2734 deg

Mean motion: 12.73972887 rev/day

Mean motion (dot): 0.00000158 rev/day2

B* drag term: 0.00019975 1/REarth

Two-line elements (TLE)

Creation date: May 8, 2025, 3:01 a.m.

Reference frame: TEME

Reference center: EARTH

Epoch: May 7, 2025, 5:40 p.m. UTC

TLE line 0: 0 DELTA 1 DEB

TLE line 1: 1 08544U 72058GT 25127.73628610 .00000158 00000-0 19975-3 0 9991

TLE line 2: 2 08544 97.4286 300.6502 0841145 342.0193 15.2734 12.73972887466350

Live tracking on map

Real-time ground track for satellite DELTA 1 DEB.

In-orbit conjunctions

A list of the most updated potential collisions computed for object DELTA 1 DEB.

Target Orbit TCA Probability of collision Miss distance Type
STELLA SSO 2024-09-01 19:40:41 0.0002854662 684.0 (m) PAYLOAD

Associated space launch

Earth observation satellite

DELTA 1 DEB was lifted into orbit during the mission ‘Delta 0900 | Landsat 1’, on board a Delta 0900 space rocket.

The launch took place on July 23, 1972, 6:06 p.m. from Space Launch Complex 2W.

For more information about the launch, click the button.

Launch to space Delta 0900 | Landsat 1
Delta 0900 | Landsat 1

Agency: N/A

Status: Launch Successful

Launch date: July 23, 1972, 6:06 p.m. UTC

Rocket: Delta 0900

Launch pad: Space Launch Complex 2W

Location: Vandenberg SFB, CA, USA

...

Latest news about this satellite

There are no fresh news available about this satellite. Check back as we update our databases every day.


Newsletter sign-up

Weekly statistics, charts and insights to help you stay on top of the space industry.